Regional Weather Roundup
Issued by NWS

Home | Current Version | Previous Version | Graphics & Text | Print | Product List | Glossary On
Versions: 1 2 3 4 5 6 7 8 9 10 11 12 13 14 15 16 17 18 19 20 21 22 23 24 25 26 27 28 29 30 31 32 33 34 35 36 37 38 39 40 41 42 43 44 45 46 47 48 49 50
000
ASUS43 KMPX 210401
RWRMN
WEATHER ROUNDUP FOR MINNESOTA
NATIONAL WEATHER SERVICE TWIN CITIES/CHANHASSEN MN
1100 PM CDT MON APR 20 2015


NOTE: "FAIR" INDICATES FEW OR NO CLOUDS BELOW 12,000 FEET WITH NO
SIGNIFICANT WEATHER AND/OR OBSTRUCTIONS TO VISIBILITY. N/A MEANS
CURRENT SKY AND/OR WEATHER CONDITIONS ARE NOT AVAILABLE.

MNZ060>063-068>070-210500-
   Twin Cities Metro

CITY           SKY/WX    TMP DP  RH WIND       PRES   REMARKS
TWIN CITIES    CLOUDY    37  29  72 NW18G33   29.54S
ST PAUL        CLOUDY    37  32  82 W17G29    29.54S
CRYSTAL        CLOUDY    38  30  73 NW15G24   29.53S
BLAINE         CLOUDY    37  30  75 W17       29.52F
LAKEVILLE      MOCLDY    37  30  75 W17       29.54S
EDEN PRAIRIE   CLOUDY    39  29  67 NW17G28   29.54S
SOUTH ST PAUL  MOCLDY    37  33  85 NW12G23   29.53F
LAKE ELMO      LGT RAIN  36  32  87 NW13G22   29.53S
$$
MNZ001>005-007-008-013>017-022>024-027-028-210500-
   Northwest Minnesota

CITY           SKY/WX    TMP DP  RH WIND       PRES   REMARKS
BEMIDJI        FLURRIES  31  26  84 NW24G32   29.50S WCI  17
HALLOCK        LGT SNOW  34  28  80 NW21G31   29.61S WCI  22
ROSEAU         LGT SNOW  30  27  86 NW16      29.52S WCI  19
WARROAD        LGT SNOW  30  27  86 NW15      29.50S WCI  19
THIEF RVR FALL CLOUDY    30  25  80 NW23      29.58S WCI  17
CROOKSTON      CLOUDY    32  28  86 N26G35    29.63S WCI  18
FOSSTON        CLOUDY    28  25  86 NW17G29   29.56F WCI  16
DETROIT LAKES  CLOUDY    32  30  93 NW24G33   29.59S WCI  19
MOORHEAD       DRIZZLE   36  28  75 NW17G23   29.64F
PARK RAPIDS    CLOUDY    37  26  64 NW22      29.51S
MAHNOMEN       CLOUDY    32  28  86 N24G31    29.58S WCI  19
$$
MNZ006-009>011-018-025>026-210500-
   North Central Minnesota

CITY           SKY/WX    TMP DP  RH WIND       PRES   REMARKS
BAUDETTE       CLOUDY    32  27  81 NW20G28   29.43F WCI  20
FLAG ISLAND    CLOUDY    32  28  86 NW21      29.45S WCI  20
INTL FALLS     CLOUDY    33  30  88 NW13      29.37S WCI  24
WASKISH        CLOUDY    32  28  86 W17G24    29.46S WCI  21
BIG FORK       LGT SNOW  30  28  93 W9        29.41S WCI  22
LONGVILLE      LGT SNOW  34  28  80 NW12G24   29.46F WCI  25
GRAND RAPIDS   CLOUDY    32  25  74 NW18G32   29.41F WCI  20
CRANE LAKE     CLOUDY    32  30  93 NW6       29.34S WCI  26
ORR            LGT SNOW  32  28  86 W13G23    29.32F WCI  22
COOK           LGT SNOW  32  30  93 W12G22    29.35F WCI  23
$$
MNZ012-019>021-037-210500-
   Northeast Minnesota

CITY           SKY/WX    TMP DP  RH WIND       PRES   REMARKS
DULUTH         LGT SNOW  33  29  85 W16       29.35F FOG     WCI  23
ELY            LGT SNOW  32  30  93 W9        29.29S WCI  24
HIBBING        FLURRIES  32  27  81 NW21G26   29.37S WCI  20
EVELETH        MIX PCPN  32  30  93 W15       29.36S WCI  22
DULUTH HARBOR  DRIZZLE   37  34  87 W18       29.39F
TWO HARBORS    CLOUDY    37  32  81 W12G18    29.31F
SILVER BAY     CLOUDY    36  30  80 W6        29.28F
GRAND MARAIS     N/A     35  31  85 W7        29.25F WCI  29
G MARAIS ARPRT CLOUDY    30  27  86 W6        29.21F WCI  24
$$
MNZ029>031-032-039>041-046>048-054>057-064-210500-
   West Central Minnesota

CITY           SKY/WX    TMP DP  RH WIND       PRES   REMARKS
FERGUS FALLS   CLOUDY    34  28  80 NW17G30   29.64F WCI  23
WHEATON        MOCLDY    36  27  69 NW12      29.67F
MORRIS         LGT SNOW  36  32  87 N20       29.63S
ALEXANDRIA     CLOUDY    33  28  81 NW20G30   29.59S WCI  21
ELBOW LAKE     CLOUDY    34  32  90 NW17G24   29.62S WCI  24
WADENA         DRIZZLE   30  27  86 NW20      29.54F WCI  18
GLENWOOD       FLURRIES  34  30  86 NW20G31   29.59F WCI  22
APPLETON       PTCLDY    41  28  60 NW17G25   29.65S
BENSON         CLOUDY    36  32  87 N10       29.63F
ORTONVILLE     MOCLDY    39  27  60 NW17G28   29.65F
MADISON        MOCLDY    39  28  65 NW17      29.67S
WILLMAR        MOCLDY    36  34  93 NW15      29.62F
$$
MNZ033>034-036-042>043-049>051-058-059-210500-
   Central Minnesota

CITY           SKY/WX    TMP DP  RH WIND       PRES   REMARKS
ST CLOUD       CLOUDY    35  27  72 NW17G29   29.53F WCI  25
SAUK CENTRE    CLOUDY    33  29  86 NW16G23   29.57F WCI  23
PAYNESVILLE    CLOUDY    33  27  79 W16G26    29.58F WCI  22
AITKIN         LGT SNOW  36  28  75 W8G17     29.45F
PINE RIVER     CLOUDY    34  28  80 W13G18    29.52F WCI  25
BRAINERD       CLOUDY    33  28  81 NW14G28   29.49F WCI  23
STAPLES        CLOUDY    32  25  74 NW20      29.52F WCI  20
LONG PRAIRIE   CLOUDY    32  28  86 W18G24    29.56S WCI  20
LITTLE FALLS   CLOUDY    34  27  75 W15G25    29.52F WCI  24
LITCHFIELD     CLOUDY    37  32  81 NW17G24   29.58F
BUFFALO        CLOUDY    36  29  76 W14G23    29.56F
MAPLE LAKE     CLOUDY    37  31  81 W15G23    29.56F
$$
MNZ037-044-045-052-053-210500-
   East Central Minnesota

CITY           SKY/WX    TMP DP  RH WIND       PRES   REMARKS
PRINCETON      CLOUDY    36  28  75 W15       29.52S
MORA           FLURRIES  32  30  93 W12G18    29.50S WCI  23
CAMBRIDGE      MOCLDY    37  28  70 W13G18    29.49S
RUSH CITY      CLOUDY    34  31  88 W14       29.49S WCI  24
MOOSE LAKE     FLURRIES  34  30  86 W12G20    29.42S WCI  25
HINCKLEY       CLOUDY    34  32  93 W8        29.46F WCI  27
CLOQUET        FLURRIES  34  28  80 W13       29.39F WCI  25
MCGREGOR       CLOUDY    32  30  93 W12G17    29.45S WCI  23
$$
MNZ071>073-080-081-089-090-097-098-210500-
   Southwest Minnesota

CITY           SKY/WX    TMP DP  RH WIND       PRES   REMARKS
MONTEVIDEO     CLOUDY    39  32  75 N17G23    29.65S
GRANITE FALLS  CLOUDY    38  32  77 W16G23    29.66S
CANBY          CLEAR     38  28  67 NW14      29.69S
MARSHALL       CLEAR     37  25  60 NW15G21   29.66S
REDWOOD FALLS  CLOUDY    38  31  76 NW14      29.63F
OLIVIA         DRIZZLE   34  30  86 NW17G31   29.62S WCI  23
PIPESTONE      CLEAR     37  25  60 NW9       29.69S
WINDOM         MOCLDY    37  28  70 W15       29.66S
WORTHINGTON    CLEAR     37  25  60 W12       29.69F
JACKSON        PTCLDY    37  27  65 W10       29.66F
TRACY          PTCLDY    38  28  67 NW13      29.67S
SLAYTON        CLEAR     36  26  66 W12       29.68F
$$
MNZ065>067-074>077-082>085-091>093-210500-
   South Central Minnesota

CITY           SKY/WX    TMP DP  RH WIND       PRES   REMARKS
MANKATO        MOCLDY    37  28  70 NW16G24   29.61S
NEW ULM        PTCLDY    37  30  75 NW16      29.62F
ST JAMES       CLOUDY    41  30  65 NW17      29.65S
FAIRMONT       PTCLDY    39  25  56 W13       29.64F
GLENCOE        CLOUDY    38  32  77 W18G26    29.58S
FARIBAULT      CLOUDY    37  32  81 W18       29.57F
OWATONNA       MOCLDY    37  32  81 W20G28    29.58F
WASECA         CLOUDY    37  32  81 W22G28    29.61F
ALBERT LEA     CLOUDY    39  30  70 W14G20    29.60F
$$
MNZ078>079-086>088-094>096-210500-
   Southeast Minnesota

CITY           SKY/WX    TMP DP  RH WIND       PRES   REMARKS
ROCHESTER      PTCLDY    36  31  82 W22G32    29.55F
RED WING       RAIN      39  30  70 NW22G30   29.52S
STANTON        CLOUDY    39  30  69 NW21G29   29.54F
DODGE CENTER   MOCLDY    37  34  87 W22       29.55F
WINONA         MOCLDY    39  32  75 W15G22    29.53F
AUSTIN         CLOUDY    37  30  75 W20G25    29.59F
PRESTON        MOCLDY    35  31  87 W20G26    29.57F WCI  24
$$
ABBREVIATIONS USED IN REMARKS
   TC - TEMPERATURES IN CELSIUS
  WCI - WIND CHILL INDEX
   HX - HEAT INDEX
  VSB - VISIBILITY
$$


USA.gov is the U.S. government's official web portal to all federal, state and local government web resources and services.